| time (UTC) | temp C | wind direction | speed KPH | gust KPH | rain 1hr cm | rain 24hr cm | rain mn cm | humidity % | barometer mb |
| 20260507023034 | 16 | 360 | 3.2 | 14.5 | 0.00 | 0.00 | 0.00 | 66 | 1016.9 |
| 20260507021538 | 16 | 360 | 4.8 | 16.1 | 0.00 | 0.00 | 0.00 | 64 | 1016.8 |
| 20260507020036 | 16 | 360 | 4.8 | 14.5 | 0.00 | 0.00 | 0.00 | 63 | 1016.6 |
| 20260507014542 | 17 | 360 | 1.6 | 14.5 | 0.00 | 0.00 | 0.00 | 62 | 1016.4 |
| 20260507013041 | 17 | 360 | 1.6 | 12.9 | 0.00 | 0.00 | 0.00 | 59 | 1016.1 |
| 20260507011541 | 17 | 360 | 3.2 | 17.7 | 0.00 | 0.00 | 0.00 | 57 | 1015.8 |
| 20260507010042 | 18 | 360 | 3.2 | 16.1 | 0.00 | 0.00 | 0.00 | 57 | 1015.6 |
| 20260507004532 | 18 | 360 | 4.8 | 14.5 | 0.00 | 0.00 | 0.00 | 57 | 1015.5 |
| 20260507003031 | 18 | 360 | 4.8 | 16.1 | 0.00 | 0.00 | 0.00 | 55 | 1015.6 |
| 20260507001551 | 19 | 360 | 6.4 | 22.5 | 0.00 | 0.00 | 0.00 | 54 | 1015.4 |
| 20260507000036 | 20 | 360 | 4.8 | 16.1 | 0.00 | 0.00 | 0.00 | 53 | 1015.3 |
| 20260506234533 | 20 | 360 | 3.2 | 14.5 | 0.00 | 0.00 | 0.00 | 54 | 1015.2 |
| 20260506233030 | 20 | 360 | 9.7 | 20.9 | 0.00 | 0.00 | 0.00 | 52 | 1015.0 |
| 20260506231533 | 20 | 360 | 4.8 | 25.7 | 0.00 | 0.00 | 0.00 | 53 | 1014.8 |
| 20260506230030 | 20 | 360 | 4.8 | 17.7 | 0.00 | 0.00 | 0.00 | 51 | 1014.7 |
| 20260506224529 | 21 | 360 | 4.8 | 20.9 | 0.00 | 0.00 | 0.00 | 52 | 1014.6 |
| 20260506223027 | 20 | 64 | 8.0 | 19.3 | 0.00 | 0.00 | 0.00 | 52 | 1014.5 |
| 20260506221526 | 20 | 174 | 6.4 | 22.5 | 0.00 | 0.00 | 0.00 | 53 | 1014.5 |
| 20260506220025 | 20 | 223 | 6.4 | 16.1 | 0.00 | 0.00 | 0.00 | 52 | 1014.6 |
| 20260506214526 | 20 | 208 | 9.7 | 22.5 | 0.00 | 0.00 | 0.00 | 52 | 1014.6 |
| 20260506213023 | 20 | 53 | 9.7 | 19.3 | 0.00 | 0.00 | 0.00 | 53 | 1014.8 |
| 20260506211537 | 20 | 232 | 4.8 | 17.7 | 0.00 | 0.00 | 0.00 | 53 | 1014.9 |
| 20260506210032 | 20 | 360 | 8.0 | 17.7 | 0.00 | 0.00 | 0.00 | 53 | 1015.0 |
| 20260506204522 | 20 | 183 | 9.7 | 24.1 | 0.00 | 0.00 | 0.00 | 54 | 1015.2 |
| 20260506203018 | 19 | 360 | 6.4 | 19.3 | 0.00 | 0.00 | 0.00 | 56 | 1015.3 |
| 20260506201516 | 19 | 360 | 3.2 | 17.7 | 0.00 | 0.00 | 0.00 | 55 | 1015.5 |
| 20260506200014 | 18 | 360 | 9.7 | 19.3 | 0.00 | 0.00 | 0.00 | 56 | 1015.5 |
| 20260506194512 | 18 | 360 | 4.8 | 14.5 | 0.00 | 0.00 | 0.00 | 58 | 1015.7 |
| 20260506193009 | 17 | 360 | 1.6 | 17.7 | 0.00 | 0.00 | 0.00 | 60 | 1015.8 |
| 20260506191507 | 16 | 360 | 3.2 | 19.3 | 0.00 | 0.00 | 0.00 | 58 | 1016.0 |
| 20260506190104 | 16 | 360 | 6.4 | 17.7 | 0.00 | 0.00 | 0.00 | 60 | 1015.7 |
| 20260506184502 | 15 | 360 | 6.4 | 16.1 | 0.00 | 0.00 | 0.00 | 61 | 1015.9 |
| 20260506183001 | 16 | 360 | 4.8 | 17.7 | 0.00 | 0.00 | 0.00 | 63 | 1015.9 |
| 20260506181606 | 14 | 360 | 8.0 | 17.7 | 0.00 | 0.00 | 0.00 | 63 | 1015.7 |
| 20260506180058 | 15 | 360 | 4.8 | 19.3 | 0.00 | 0.00 | 0.00 | 62 | 1016.0 |
| 20260506174557 | 14 | 360 | 12.9 | 24.1 | 0.00 | 0.00 | 0.00 | 61 | 1016.3 |
| 20260506173125 | 14 | 360 | 8.0 | 20.9 | 0.00 | 0.00 | 0.00 | 61 | 1016.3 |
| 20260506171559 | 14 | 360 | 6.4 | 24.1 | 0.00 | 0.00 | 0.00 | 61 | 1016.3 |
| 20260506170107 | 14 | 360 | 12.9 | 27.4 | 0.00 | 0.00 | 0.00 | 62 | 1016.2 |
| 20260506164554 | 14 | 360 | 4.8 | 22.5 | 0.00 | 0.00 | 0.00 | 61 | 1016.3 |
| 20260506163058 | 15 | 360 | 9.7 | 24.1 | 0.00 | 0.00 | 0.00 | 61 | 1016.6 |
| 20260506161550 | 14 | 360 | 12.9 | 29.0 | 0.00 | 0.00 | 0.00 | 62 | 1016.6 |
| 20260506160049 | 13 | 360 | 8.0 | 24.1 | 0.00 | 0.00 | 0.00 | 63 | 1016.9 |
| 20260506154605 | 13 | 360 | 14.5 | 30.6 | 0.00 | 0.00 | 0.00 | 63 | 1016.6 |
| 20260506153042 | 12 | 360 | 6.4 | 19.3 | 0.00 | 0.00 | 0.00 | 65 | 1016.9 |
| 20260506151543 | 12 | 360 | 4.8 | 17.7 | 0.00 | 0.00 | 0.00 | 65 | 1016.7 |
| 20260506150042 | 12 | 360 | 4.8 | 20.9 | 0.00 | 0.00 | 0.00 | 64 | 1016.9 |
| 20260506144549 | 12 | 360 | 4.8 | 27.4 | 0.00 | 0.00 | 0.00 | 64 | 1016.9 |
| 20260506143037 | 12 | 360 | 3.2 | 16.1 | 0.00 | 0.00 | 0.00 | 65 | 1016.9 |
| 20260506141533 | 11 | 360 | 6.4 | 20.9 | 0.00 | 0.00 | 0.00 | 66 | 1016.5 |
| 20260506140034 | 11 | 360 | 9.7 | 22.5 | 0.00 | 0.00 | 0.00 | 67 | 1016.2 |
| 20260506134526 | 11 | 360 | 9.7 | 25.7 | 0.00 | 0.00 | 0.00 | 68 | 1016.1 |
| 20260506133023 | 11 | 360 | 14.5 | 22.5 | 0.00 | 0.00 | 0.00 | 68 | 1015.7 |
| 20260506131520 | 11 | 360 | 8.0 | 25.7 | 0.00 | 0.00 | 0.00 | 68 | 1015.3 |
| 20260506130017 | 11 | 360 | 11.3 | 27.4 | 0.00 | 0.00 | 0.00 | 68 | 1015.1 |
| 20260506124514 | 11 | 360 | 6.4 | 25.7 | 0.00 | 0.00 | 0.00 | 69 | 1014.6 |
| 20260506123009 | 10 | 360 | 9.7 | 27.4 | 0.00 | 0.00 | 0.00 | 69 | 1014.3 |
| 20260506121507 | 10 | 360 | 11.3 | 17.7 | 0.00 | 0.00 | 0.00 | 70 | 1014.6 |
| 20260506120004 | 10 | 360 | 8.0 | 19.3 | 0.00 | 0.00 | 0.00 | 71 | 1014.2 |
| 20260506114504 | 10 | 360 | 8.0 | 19.3 | 0.00 | 0.00 | 0.00 | 71 | 1014.2 |
| 20260506113100 | 10 | 360 | 11.3 | 20.9 | 0.00 | 0.00 | 0.00 | 72 | 1014.1 |
| 20260506111558 | 10 | 360 | 14.5 | 24.1 | 0.00 | 0.00 | 0.00 | 73 | 1013.9 |
| 20260506110057 | 10 | 360 | 11.3 | 29.0 | 0.00 | 0.00 | 0.00 | 74 | 1014.0 |
| 20260506104620 | 10 | 360 | 14.5 | 27.4 | 0.00 | 0.00 | 0.00 | 77 | 1014.1 |
| 20260506103052 | 10 | 360 | 9.7 | 27.4 | 0.00 | 0.00 | 0.00 | 78 | 1013.8 |
| 20260506101551 | 10 | 360 | 14.5 | 22.5 | 0.00 | 0.00 | 0.00 | 78 | 1013.4 |
| 20260506100048 | 10 | 360 | 8.0 | 19.3 | 0.00 | 0.00 | 0.00 | 79 | 1013.3 |
| 20260506094547 | 10 | 360 | 12.9 | 29.0 | 0.00 | 0.00 | 0.00 | 79 | 1013.2 |
| 20260506093045 | 10 | 360 | 16.1 | 27.4 | 0.00 | 0.00 | 0.00 | 79 | 1012.8 |
| 20260506091542 | 10 | 360 | 9.7 | 24.1 | 0.00 | 0.00 | 0.00 | 79 | 1013.2 |
| 20260506090045 | 11 | 360 | 8.0 | 22.5 | 0.00 | 0.00 | 0.00 | 79 | 1013.0 |
| 20260506084538 | 11 | 360 | 8.0 | 20.9 | 0.00 | 0.00 | 0.00 | 78 | 1012.9 |
| 20260506083040 | 11 | 360 | 11.3 | 20.9 | 0.00 | 0.00 | 0.00 | 78 | 1012.6 |
| 20260506081529 | 11 | 360 | 8.0 | 22.5 | 0.00 | 0.00 | 0.00 | 77 | 1012.2 |
| 20260506073025 | 11 | 360 | 9.7 | 20.9 | 0.00 | 0.00 | 0.00 | 78 | 1011.8 |
| 20260506071526 | 11 | 360 | 4.8 | 16.1 | 0.00 | 0.00 | 0.00 | 77 | 1012.1 |
| 20260506061516 | 11 | 360 | 8.0 | 22.5 | 0.00 | 0.00 | 0.00 | 76 | 1011.5 |
| 20260506044501 | 11 | 360 | 9.7 | 19.3 | 0.00 | 0.00 | 0.00 | 75 | 1010.8 |
| 20260506043100 | 12 | 360 | 9.7 | 20.9 | 0.00 | 0.00 | 0.00 | 74 | 1010.9 |
| 20260506041558 | 12 | 360 | 4.8 | 19.3 | 0.00 | 0.00 | 0.00 | 74 | 1010.8 |
| 20260506040055 | 12 | 360 | 8.0 | 24.1 | 0.00 | 0.00 | 0.00 | 73 | 1010.6 |
| 20260506034559 | 12 | 360 | 6.4 | 25.7 | 0.00 | 0.00 | 0.00 | 73 | 1010.5 |
| 20260506033052 | 12 | 360 | 14.5 | 29.0 | 0.00 | 0.00 | 0.00 | 73 | 1010.2 |
| 20260506031554 | 12 | 360 | 14.5 | 25.7 | 0.00 | 0.00 | 0.00 | 72 | 1009.8 |
| 20260506030046 | 13 | 360 | 12.9 | 24.1 | 0.00 | 0.00 | 0.00 | 72 | 1010.0 |
| 20260506024547 | 13 | 360 | 8.0 | 25.7 | 0.00 | 0.00 | 0.00 | 71 | 1010.1 |